Find Starlink 33939

NORAD ID: 63702 Int'l Des: 2025-087 Owner: SPXS Country: US Constellation: starlink operational
LEOCIRCULAR

現在のビュー

3D地球を読み込み中...

About Starlink 33939

Starlink 33939 (NORAD 63702) is a starlink constellation satellite (v2 mini) launched Apr 28, 2025 by SPXS of US. It operates in LEO, CIRCULAR orbit with a mass of 575.00 kg.

Starlink 33939について

説明を読み込み中...

次回通過

Passes for default location (London). Set your location on the main map for personalized predictions.

高度履歴

Loading altitude history...

軌道要素

1 63702U 25087F 26169.26090958 .00012964 00000-0 42855-3 0 9992
2 63702 53.1585 111.9826 0001208 96.0729 264.0410 15.31717042 64603
Epoch: Jun 18, 2026 • Age: 8 hours

現在のステータス

高度 485.4 km
速度 7.62 km/s
衛星直下点 -41.91°S, 45.98°W
打ち上げ日 Apr 28, 2025
運用期間 1.1 years
タイプ internet

技術仕様

分類 Payload
質量 575.00 kg
乾燥質量 530.00 kg
総質量 575.00 kg
長さ 0.30 m
直径 4.10 m
スパン 29.00 m
形状 Box + pan
製造者 SPXS
バスタイプ Starlink V2MO
フェーズステータス In Orbit
所有者/国 SPXS/US

Most Searched